GW4372 Weather Reports


time (UTC)temp
C
wind
direction
speed
KPH
gust
KPH
rain 1hr
cm
rain 24hr
cm
rain mn
cm
humidity
%
barometer
mb
20260504193119 30 162 3.2 4.8 0.00 0.00 0.00 58 1012.1
20260504192617 30 26 6.4 14.5 0.00 0.00 0.00 59 1012.0
20260504192115 30 194 3.2 4.8 0.00 0.00 0.00 60 1012.3
20260504191613 28 166 1.6 6.4 0.00 0.00 0.00 63 1012.1
20260504191109 28 104 6.4 9.7 0.00 0.00 0.00 62 1012.2
20260504190605 30 154 3.2 12.9 0.00 0.00 0.00 60 1012.4
20260504185559 30 182 1.6 4.8 0.00 0.00 0.00 59 1012.4
20260504185055 29 147 1.6 11.3 0.00 0.00 0.00 61 1012.6
20260504184551 28 189 4.8 11.3 0.00 0.00 0.00 61 1012.6
20260504184046 28 113 3.2 4.8 0.00 0.00 0.00 60 1012.8
20260504183544 28 177 1.6 14.5 0.00 0.00 0.00 61 1012.8
20260504183042 28 102 3.2 11.3 0.00 0.00 0.00 62 1012.9
20260504182539 30 343 4.8 4.8 0.00 0.00 0.00 60 1012.7
20260504182036 30 207 4.8 11.3 0.00 0.00 0.00 61 1012.8
20260504181532 30 184 1.6 16.1 0.00 0.00 0.00 58 1012.8
20260504181031 30 170 3.2 4.8 0.00 0.00 0.00 57 1013.1
20260504180529 29 183 3.2 6.4 0.00 0.00 0.00 60 1013.2
20260504180028 27 175 6.4 9.7 0.00 0.00 0.00 63 1013.2
20260504175525 28 157 3.2 11.3 0.00 0.00 0.00 61 1013.3
20260504175022 28 162 4.8 12.9 0.00 0.00 0.00 61 1013.1
20260504174519 28 91 9.7 12.9 0.00 0.00 0.00 61 1013.2
20260504174016 28 144 3.2 9.7 0.00 0.00 0.00 60 1013.5
20260504173513 29 143 6.4 11.3 0.00 0.00 0.00 58 1013.4
20260504173011 29 185 0.0 6.4 0.00 0.00 0.00 62 1013.6
20260504172506 29 181 0.0 3.2 0.00 0.00 0.00 61 1013.7
20260504172003 28 87 3.2 6.4 0.00 0.00 0.00 61 1013.7
20260504171500 28 138 3.2 12.9 0.00 0.00 0.00 61 1013.9
20260504170957 28 43 6.4 9.7 0.00 0.00 0.00 61 1013.8
20260504170453 27 156 1.6 11.3 0.00 0.00 0.00 62 1013.8
20260504160413 26 28 3.2 12.9 0.00 0.00 0.00 68 1014.7
20260504150837 25 13 6.4 12.9 0.00 0.00 0.00 74 1015.1
20260504150333 25 7 8.0 12.9 0.00 0.00 0.00 73 1015.2
20260504141303 25 174 1.6 3.2 0.00 0.00 0.00 76 1014.5
20260504140800 24 39 14.5 16.1 0.00 0.00 0.00 77 1014.6
20260504140255 24 233 1.6 6.4 0.00 0.00 0.00 78 1014.6
20260504130724 22 88 4.8 6.4 0.00 0.00 0.00 82 1014.2
20260504130220 22 202 3.2 11.3 0.00 0.00 0.00 82 1014.2
20260504120144 20 90 3.2 4.8 0.00 0.00 0.00 89 1013.9
20260504110612 20 117 3.2 4.8 0.00 0.00 0.00 92 1013.1
20260504110108 20 76 3.2 4.8 0.00 0.00 0.00 92 1013.2
20260504100534 20 159 3.2 3.2 0.00 0.00 0.00 96 1012.7
20260504081927 20 174 0.0 0.0 0.00 0.00 0.00 97 1012.6
20260504081424 20 174 0.0 0.0 0.00 0.00 0.00 96 1012.8
20260504080920 20 177 0.0 0.0 0.00 0.00 0.00 96 1013.2
20260504080417 20 173 0.0 0.0 0.00 0.00 0.00 95 1013.1
20260504070345 20 177 0.0 0.0 0.00 0.00 0.00 97 1013.4
20260504050732 20 170 1.6 3.2 0.00 0.00 0.00 99 1014.1
20260504050230 20 143 0.0 0.0 0.00 0.00 0.00 99 1014.4
20260504045727 20 175 0.0 0.0 0.00 0.00 0.00 99 1014.5
20260504045227 20 181 0.0 0.0 0.00 0.00 0.00 99 1014.7
20260504044725 20 184 0.0 0.0 0.00 0.00 0.00 99 1014.7
20260504044222 20 183 0.0 0.0 0.00 0.00 0.00 99 1014.6
20260504043719 20 175 0.0 0.0 0.00 0.00 0.00 99 1014.5
20260504043215 20 180 0.0 0.0 0.00 0.00 0.00 99 1014.6
20260504042713 20 182 0.0 0.0 0.00 0.00 0.00 99 1014.4
20260504042209 20 173 0.0 0.0 0.00 0.00 0.00 99 1014.5
20260504041705 20 171 0.0 0.0 0.00 0.00 0.00 99 1014.3
20260504041201 20 173 0.0 0.0 0.00 0.00 0.00 99 1014.4
20260504040658 20 157 0.0 0.0 0.00 0.00 0.00 99 1014.6
20260504040155 20 179 0.0 0.0 0.00 0.00 0.00 99 1014.6
20260504035652 20 177 0.0 0.0 0.00 0.23 0.23 99 1014.5
20260504035149 20 174 0.0 0.0 0.00 0.23 0.23 99 1014.6
20260504034647 20 176 0.0 0.0 0.00 0.23 0.23 99 1014.8
20260504034143 20 175 0.0 0.0 0.00 0.23 0.23 98 1014.5
20260504033641 20 177 0.0 0.0 0.00 0.23 0.23 98 1014.8
20260504033138 20 175 0.0 0.0 0.00 0.23 0.23 98 1014.7
20260504032635 20 151 0.0 1.6 0.00 0.23 0.23 97 1014.5
20260504032132 20 167 0.0 0.0 0.00 0.23 0.23 97 1014.4
20260504031629 20 178 0.0 0.0 0.00 0.23 0.23 96 1014.8
20260504031125 20 170 1.6 1.6 0.00 0.23 0.23 95 1014.5
20260504030622 21 137 3.2 4.8 0.18 0.23 0.23 94 1014.8
20260504030119 21 179 0.0 0.0 0.00 0.20 0.20 92 1014.7
20260504025616 21 190 0.0 0.0 0.00 0.20 0.20 92 1015.2
20260504025113 21 166 0.0 1.6 0.00 0.20 0.20 92 1015.2
20260504024610 21 147 1.6 1.6 0.00 0.20 0.20 92 1015.1
20260504024107 21 139 1.6 3.2 0.00 0.20 0.20 92 1015.1
20260504023603 21 174 0.0 1.6 0.00 0.20 0.20 92 1015.2
20260504023059 21 168 0.0 1.6 0.00 0.20 0.20 92 1015.2
20260504022555 21 159 1.6 1.6 0.00 0.20 0.20 92 1015.1
20260504022051 21 61 3.2 4.8 0.00 0.20 0.20 92 1015.1
20260504021549 21 169 0.0 1.6 0.00 0.20 0.20 91 1015.1
20260504021046 21 174 0.0 0.0 0.00 0.20 0.20 91 1014.7
20260504020543 21 169 0.0 0.0 0.00 0.20 0.20 91 1015.0
20260504020039 21 131 1.6 1.6 0.00 0.20 0.20 91 1014.8
20260504015536 21 170 1.6 1.6 0.00 0.20 0.20 91 1014.9
20260504015032 21 163 0.0 0.0 0.00 0.20 0.20 91 1014.8
20260504014528 21 172 0.0 0.0 0.00 0.20 0.20 91 1014.7
20260504014025 21 165 0.0 3.2 0.00 0.20 0.20 90 1014.7
20260504013523 21 165 0.0 1.6 0.00 0.20 0.20 90 1014.5
20260504013020 21 157 1.6 4.8 0.00 0.20 0.20 90 1014.5
20260504012517 21 109 3.2 4.8 0.00 0.20 0.20 91 1014.4
20260504012015 21 172 0.0 1.6 0.00 0.20 0.20 91 1014.3
20260504011511 21 171 0.0 0.0 0.00 0.20 0.20 91 1014.3
20260504011008 21 38 3.2 4.8 0.00 0.20 0.20 91 1014.3
20260504010503 21 124 3.2 6.4 0.00 0.20 0.20 91 1014.3
20260504005959 21 162 1.6 3.2 0.00 0.20 0.20 91 1014.3
20260504005456 21 35 1.6 3.2 0.00 0.20 0.20 91 1014.0
20260504004954 21 154 0.0 3.2 0.00 0.20 0.20 91 1014.0
20260504004451 21 162 0.0 1.6 0.00 0.20 0.20 92 1014.1
20260504003948 21 164 0.0 1.6 0.00 0.20 0.20 92 1013.9
20260504003444 21 187 0.0 1.6 0.00 0.20 0.20 92 1014.1
20260504002941 21 158 1.6 4.8 0.00 0.20 0.20 92 1014.1
20260504002438 21 159 1.6 3.2 0.00 0.20 0.20 92 1013.9
20260504001936 21 168 0.0 3.2 0.00 0.20 0.20 92 1014.0
20260504001433 21 170 0.0 1.6 0.00 0.20 0.20 91 1014.0
20260504000929 21 173 0.0 1.6 0.00 0.20 0.20 91 1013.8
20260504000426 21 140 3.2 6.4 0.00 0.20 0.20 92 1013.9
20260503235924 21 182 0.0 3.2 0.00 0.20 0.20 92 1013.9
20260503235422 21 177 0.0 1.6 0.00 0.20 0.20 91 1013.5
20260503234919 21 125 1.6 3.2 0.00 0.20 0.20 91 1013.5
20260503234416 21 253 1.6 3.2 0.00 0.20 0.20 91 1013.7
20260503233914 21 170 0.0 1.6 0.00 0.20 0.20 91 1013.4
20260503233410 21 162 1.6 4.8 0.00 0.20 0.20 91 1013.5
20260503232907 21 34 1.6 9.7 0.00 0.20 0.20 90 1013.7
20260503232404 21 73 3.2 6.4 0.00 0.20 0.20 90 1013.6
20260503231902 21 99 4.8 6.4 0.00 0.20 0.20 90 1013.5
20260503231359 21 115 3.2 4.8 0.00 0.20 0.20 90 1013.6
20260503230855 21 141 3.2 3.2 0.00 0.20 0.20 90 1013.6
20260503230352 21 190 1.6 3.2 0.00 0.20 0.20 90 1013.5
20260503225850 21 46 4.8 9.7 0.00 0.20 0.20 90 1013.4
20260503225345 21 64 9.7 11.3 0.00 0.20 0.20 91 1013.4
20260503224842 21 81 1.6 6.4 0.00 0.20 0.20 91 1013.3
20260503224339 21 359 3.2 4.8 0.00 0.20 0.20 92 1013.2
20260503223837 21 131 1.6 3.2 0.00 0.20 0.20 92 1013.2
20260503223334 21 103 3.2 11.3 0.00 0.20 0.20 93 1013.3
20260503222830 21 139 3.2 4.8 0.00 0.20 0.20 94 1013.4
20260503222328 21 170 1.6 3.2 0.00 0.20 0.20 94 1013.1
20260503221826 21 61 3.2 6.4 0.00 0.20 0.20 94 1013.2
20260503221325 21 113 1.6 3.2 0.00 0.20 0.20 94 1013.3
20260503220820 21 112 3.2 6.4 0.00 0.20 0.20 93 1013.3
20260503220317 21 150 1.6 6.4 0.00 0.20 0.20 93 1013.3
20260503215814 21 27 9.7 11.3 0.00 0.20 0.20 93 1013.4
20260503215311 21 12 6.4 9.7 0.00 0.20 0.20 93 1013.4
20260503214809 21 64 3.2 4.8 0.00 0.20 0.20 93 1013.5
20260503214306 21 70 1.6 3.2 0.00 0.20 0.20 93 1013.3
20260503213804 21 34 3.2 6.4 0.00 0.20 0.20 94 1013.4
20260503213301 21 160 1.6 1.6 0.00 0.20 0.20 95 1013.6
20260503212758 21 42 8.0 9.7 0.00 0.20 0.20 94 1013.7
20260503212255 21 134 1.6 4.8 0.00 0.20 0.20 94 1013.5
20260503211753 21 120 1.6 4.8 0.00 0.20 0.20 93 1013.6
20260503211249 21 122 3.2 4.8 0.00 0.20 0.20 92 1013.9
20260503210744 21 173 1.6 4.8 0.00 0.20 0.20 91 1013.8
20260503210242 21 173 1.6 3.2 0.00 0.20 0.20 91 1013.8
20260503205742 22 137 3.2 6.4 0.00 0.20 0.20 90 1013.8
20260503205239 22 30 8.0 11.3 0.00 0.20 0.20 90 1013.5
20260503204735 22 116 4.8 6.4 0.00 0.20 0.20 90 1013.8
20260503204233 22 117 3.2 9.7 0.00 0.20 0.20 90 1013.7
20260503203730 22 51 3.2 4.8 0.00 0.20 0.20 90 1013.7
20260503203228 22 38 6.4 9.7 0.00 0.20 0.20 90 1013.8
20260503202725 22 156 3.2 9.7 0.00 0.20 0.20 90 1013.7
20260503202222 22 46 4.8 9.7 0.00 0.20 0.20 89 1013.6
20260503201720 22 9 9.7 11.3 0.00 0.20 0.20 89 1013.5
20260503201217 22 25 4.8 6.4 0.00 0.20 0.20 89 1013.7
20260503200713 22 27 9.7 12.9 0.00 0.20 0.20 89 1013.7
20260503200210 22 21 9.7 11.3 0.00 0.20 0.20 88 1013.9
20260503195707 22 168 1.6 12.9 0.00 0.20 0.20 89 1013.8
20260503195204 22 75 6.4 9.7 0.00 0.20 0.20 89 1014.0
20260503194701 21 359 8.0 14.5 0.00 0.20 0.20 90 1014.1
20260503194156 21 50 9.7 14.5 0.00 0.20 0.20 89 1014.1
20260503193653 22 63 3.2 3.2 0.00 0.20 0.20 89 1014.3